Carbondale, IL

6:11 PM CDT on October 21, 2019 (GMT -0500)
Southern Illinois

Weather History for KMDH - July, 2019

Change the Weather History Date:

Monday, July 15, 2019

  Actual Average Record
Temperature  
Mean Temperature 73 °F -  
Max Temperature 75 °F 89 °F 105 °F (1936)
Min Temperature 71 °F 67 °F 48 °F (1930)
Cooling Degree Days 8    
Growing Degree Days 23 (Base 50)    
Moisture  
Dew Point 70 °F    
Average Humidity 93    
Maximum Humidity 96    
Minimum Humidity 84    
Precipitation  
Precipitation 1.12 in - - ()
Sea Level Pressure  
Sea Level Pressure 30.01 in    
Wind  
Wind Speed 10 mph (ESE)    
Max Wind Speed 18 mph    
Max Gust Speed 29 mph    
Visibility 5 miles    
Events Rain    
Averages and records for this station are not official NWS values.
T = Trace of Precipitation, MM = Missing Value Source: NWS Daily Summary

Daily Weather History Graph

Daily Weather History Graph

Search for Another Location

Airport or City:

Astronomy

Jul. 15, 2019 Rise Set
Actual Time 5:46 AM CDT 8:18 PM CDT
Civil Twilight 5:16 AM CDT 8:49 PM CDT
Nautical Twilight 4:38 AM CDT 9:26 PM CDT
Astronomical Twilight 3:56 AM CDT 10:08 PM CDT
Moon 7:35 PM CDT (7/15) 4:34 AM CDT (7/15)
Length of Visible Light 15h 32m
Length of Day
14h 31m
Waxing Gibbous, 99% of the Moon is Illuminated
Jul 15
Waxing Gibbous
Jul 16
Full
Jul 24
Last Quarter
Jul 31
New
Aug 7
First Quarter

Hourly Weather History & Observations

Time (CDT) Temp. Dew Point Humidity Pressure Visibility Wind Dir Wind Speed Gust Speed Precip Events Conditions
12:52 AM 72.0 °F 66.9 °F 84% 30.10 in 10.0 mi SE 8.1 mph - N/A   Clear
1:52 AM 72.0 °F 68.0 °F 87% 30.06 in 10.0 mi ESE 6.9 mph - N/A   Clear
2:52 AM 72.0 °F 68.0 °F 87% 30.06 in 10.0 mi SE 5.8 mph - N/A   Scattered Clouds
3:52 AM 72.0 °F 68.0 °F 87% 30.06 in 10.0 mi SSE 3.5 mph - 0.00 in   Partly Cloudy
4:52 AM 71.1 °F 68.0 °F 90% 30.07 in 10.0 mi ESE 4.6 mph - N/A   Clear
5:52 AM 71.1 °F 69.1 °F 93% 30.06 in 10.0 mi SE 6.9 mph - N/A   Partly Cloudy
6:52 AM 73.0 °F 68.0 °F 84% 30.06 in 10.0 mi SE 5.8 mph - N/A   Overcast
7:52 AM 72.0 °F 68.0 °F 87% 30.08 in 4.0 mi SE 4.6 mph - 0.04 in Rain Rain
8:52 AM 71.1 °F 68.0 °F 90% 30.08 in 4.0 mi East 5.8 mph - 0.11 in Rain Rain
9:52 AM 71.1 °F 69.1 °F 93% 30.10 in 2.5 mi ESE 5.8 mph - 0.11 in Rain Rain
10:52 AM 71.1 °F 70.0 °F 96% 30.08 in 2.5 mi East 9.2 mph - 0.23 in Rain Light Rain
11:30 AM 72.0 °F 70.0 °F 93% 30.07 in 5.0 mi East 15.0 mph 24.2 mph 0.06 in Rain Light Rain
11:52 AM 72.0 °F 70.0 °F 93% 30.06 in 6.0 mi East 16.1 mph 24.2 mph 0.06 in Rain Light Rain
11:59 AM 72.0 °F 70.0 °F 93% 30.07 in 3.0 mi East 13.8 mph 24.2 mph 0.01 in Rain Light Rain
12:11 PM 72.0 °F 70.0 °F 93% 30.07 in 2.5 mi East 16.1 mph 27.6 mph 0.03 in Rain Light Rain
12:31 PM 72.0 °F 70.0 °F 93% 30.06 in 2.5 mi East 12.7 mph 27.6 mph 0.09 in Rain Light Rain
12:40 PM 72.0 °F 70.0 °F 93% 30.04 in 2.5 mi East 13.8 mph 24.2 mph 0.09 in Rain Light Rain
12:52 PM 71.1 °F 70.0 °F 96% 30.04 in 1.5 mi East 18.4 mph 28.8 mph 0.13 in Rain Rain
1:02 PM 72.0 °F 70.0 °F 93% 30.04 in 2.5 mi East 15.0 mph 25.3 mph 0.03 in Rain Light Rain
1:06 PM 71.1 °F 70.0 °F 96% 30.04 in 3.0 mi ESE 17.3 mph 25.3 mph 0.03 in Rain Light Rain
1:12 PM 71.1 °F 70.0 °F 96% 30.04 in 2.5 mi ESE 13.8 mph 25.3 mph 0.04 in Rain Rain
1:32 PM 71.1 °F 70.0 °F 96% 30.04 in 1.2 mi ESE 12.7 mph 20.7 mph 0.10 in Rain Rain
1:42 PM 71.1 °F 70.0 °F 96% 30.03 in 2.0 mi ESE 15.0 mph 21.9 mph 0.12 in Rain Light Rain
1:52 PM 71.1 °F 70.0 °F 96% 30.02 in 1.2 mi ESE 17.3 mph 24.2 mph 0.16 in Rain Heavy Rain
2:00 PM 71.1 °F 70.0 °F 96% 30.02 in 1.2 mi ESE 16.1 mph 25.3 mph 0.03 in Rain Rain
2:21 PM 71.1 °F 70.0 °F 96% 30.01 in 2.5 mi ESE 15.0 mph - 0.06 in Rain Light Rain
2:31 PM 72.0 °F 70.0 °F 93% 30.01 in 2.0 mi ESE 15.0 mph 25.3 mph 0.07 in Rain Light Rain
2:43 PM 72.0 °F 70.0 °F 93% 30.01 in 3.0 mi ESE 18.4 mph 27.6 mph 0.09 in Rain Light Rain
2:52 PM 72.0 °F 70.0 °F 93% 30.00 in 2.0 mi ESE 15.0 mph 23.0 mph 0.09 in Rain Light Rain
3:52 PM 73.0 °F 71.1 °F 93% 29.98 in 2.0 mi ESE 11.5 mph - 0.02 in Rain Light Rain
4:22 PM 73.0 °F 71.1 °F 93% 29.97 in 5.0 mi East 11.5 mph - 0.01 in   Overcast
4:31 PM 73.0 °F 72.0 °F 96% 29.97 in 2.0 mi East 10.4 mph - 0.02 in Rain Light Rain
4:52 PM 73.0 °F 72.0 °F 96% 29.96 in 2.0 mi ESE 9.2 mph - 0.06 in Rain Rain
4:59 PM 73.9 °F 72.0 °F 93% 29.96 in 2.5 mi ESE 6.9 mph - 0.00 in Rain Light Rain
5:13 PM 73.0 °F 72.0 °F 96% 29.96 in 2.0 mi South 5.8 mph - 0.07 in Rain Light Rain
5:27 PM 73.9 °F 72.0 °F 93% 29.95 in 2.0 mi South 4.6 mph - 0.09 in Rain Light Rain
5:52 PM 75.0 °F 73.0 °F 94% 29.94 in 2.0 mi South 4.6 mph - 0.09 in   Mostly Cloudy
5:56 PM 75.0 °F 73.0 °F 94% 29.95 in 10.0 mi SE 8.1 mph - N/A   Mostly Cloudy
6:09 PM 75.0 °F 73.0 °F 94% 29.95 in 10.0 mi ESE 8.1 mph - N/A   Mostly Cloudy
6:23 PM 75.9 °F 73.0 °F 91% 29.95 in 10.0 mi SE 10.4 mph - N/A   Mostly Cloudy
6:52 PM 75.0 °F 72.0 °F 90% 29.94 in 10.0 mi SE 11.5 mph - N/A   Mostly Cloudy
7:52 PM 75.0 °F 72.0 °F 90% 29.93 in 10.0 mi SE 11.5 mph - N/A   Scattered Clouds
8:52 PM 73.9 °F 72.0 °F 93% 29.93 in 10.0 mi SE 10.4 mph - N/A   Mostly Cloudy
9:52 PM 75.0 °F 72.0 °F 90% 29.93 in 10.0 mi SSE 13.8 mph - N/A   Scattered Clouds
10:52 PM 73.9 °F 72.0 °F 93% 29.94 in 8.0 mi SSE 13.8 mph 23.0 mph 0.00 in Rain Light Rain
11:52 PM 73.0 °F 72.0 °F 96% 29.94 in 4.0 mi SSE 8.1 mph - 0.02 in Rain Light Rain